GFSNW_sfc_rhum_051.txt.gz
RH
82 83 83 79 82 84 90 93 94 80 78 98 82 77 64 57 51 52 55 61 65 61 45 46 43 40 31 30 34 34 41 48 53 39 35 33 36 41 42 57 47 58 58 43
86 83 84 80 82 84 96 96 90 88 78 84 82 68 64 56 59 56 60 62 61 58 56 46 44 44 38 42 36 43 46 46 45 36 36 40 40 40 41 49 56 57 73 43
88 86 86 81 80 80 95 98 99 99 94 61 59 72 71 69 54 56 56 60 61 59 57 52 47 46 44 48 38 66 44 49 44 40 35 39 51 44 44 45 61 53 50 39
89 88 88 81 80 80 94 98 90 82 96 81 65 61 61 67 67 53 58 65 57 63 60 56 52 49 54 53 68 50 46 47 48 38 32 38 39 39 47 42 44 51 41 42
89 91 88 82 79 79 93 98 92 84 76 68 73 68 66 66 60 54 59 62 64 59 64 59 57 52 52 54 54 55 50 49 52 48 42 39 42 39 42 43 40 42 38 40
88 92 88 83 81 83 96 96 84 70 77 77 75 72 63 62 60 56 49 54 60 71 60 50 53 53 52 51 53 58 55 62 59 52 48 45 64 49 44 43 41 40 47 40
90 91 87 83 81 86 94 95 84 89 79 87 71 60 64 61 59 64 54 53 54 53 53 55 57 55 58 62 60 55 62 61 65 73 68 72 40 39 36 41 39 36 36 33
91 89 86 83 80 79 95 88 94 93 85 73 71 64 60 62 61 60 53 57 54 53 55 74 67 77 73 70 66 64 55 68 74 80 63 50 37 37 40 41 30 34 35 35
91 87 86 82 80 77 93 91 96 95 85 81 62 66 60 67 69 73 68 59 58 64 78 75 76 80 73 69 63 60 65 66 71 73 71 70 51 36 36 31 44 37 38 50
89 87 84 80 80 79 79 99 93 95 97 89 75 73 68 56 71 79 78 62 69 62 89 95 86 78 65 76 78 83 78 78 74 78 81 62 46 37 38 49 44 44 44 51
89 88 84 81 80 79 73 98 95 91 95 87 85 91 75 66 60 77 78 72 77 93 87 91 88 93 78 76 67 74 71 77 85 78 89 68 46 39 46 46 46 49 52 57
88 84 81 81 78 79 76 97 93 94 97 95 88 88 83 71 50 64 76 68 73 70 86 92 90 98 96 78 74 62 75 65 69 60 63 55 47 44 43 46 46 55 55 60
86 83 80 80 81 80 80 96 97 95 99 91 91 90 88 84 80 65 81 87 75 80 81 91 90 91 82 94 85 76 68 67 67 63 54 53 56 56 60 53 51 53 52 59
87 89 90 89 88 84 78 97 96 88 96 98 80 77 88 81 85 78 71 73 89 86 88 95 98 95 75 86 69 72 68 68 68 66 61 71 64 66 59 63 69 65 60 62
90 89 90 86 81 84 88 96 95 88 95 99 90 75 69 79 89 86 80 81 86 93 96 99 94 86 85 91 84 84 65 64 72 70 51 56 47 56 68 72 68 65 69 73
86 84 83 82 82 85 94 94 93 92 92 99 93 83 82 89 93 92 92 83 90 91 89 94 87 83 85 95 81 59 58 68 70 53 67 73 78 73 68 72 71 70 68 70
88 87 84 82 81 89 91 96 90 86 97 100 95 95 84 82 94 98 98 94 93 90 90 96 88 91 85 97 85 55 62 67 72 73 68 73 72 75 75 74 75 74 71 71
84 85 90 84 81 83 93 94 89 87 95 94 100 99 99 95 100 98 96 99 95 94 91 95 95 94 93 94 73 65 75 76 78 75 75 71 78 78 81 78 78 81 84 83
86 84 86 89 92 96 94 89 86 95 90 98 100 100 100 96 99 100 99 97 100 97 100 97 91 100 95 79 69 76 80 79 83 82 80 79 81 84 84 82 82 87 91 82
85 84 91 99 96 90 89 94 94 93 94 94 99 98 99 93 100 100 100 100 100 100 99 96 100 90 83 82 81 82 82 81 80 92 97 94 92 88 87 84 83 84 82 80
93 97 99 94 92 93 96 100 97 95 96 98 94 86 89 94 99 100 99 100 100 100 99 99 100 98 88 90 89 84 80 78 82 79 80 78 81 87 90 87 86 83 80 80
95 95 95 98 95 99 98 99 99 98 94 100 100 98 93 100 96 96 100 100 100 99 98 100 100 96 93 92 90 87 83 80 80 78 82 82 80 80 82 84 85 85 86 92
95 95 96 99 100 100 99 99 99 100 100 99 100 100 99 99 95 100 100 100 100 99 100 99 98 98 98 98 96 97 95 92 90 86 84 84 85 83 86 92 92 95 95 95
100 100 98 99 98 98 98 99 100 100 100 100 100 100 100 100 100 100 100 100 100 98 97 97 99 100 100 97 94 91 95 96 93 92 88 89 92 95 97 97 97 96 95 95
100 98 98 98 99 99 99 100 100 100 100 100 100 100 98 100 100 100 99 97 97 96 98 98 98 100 99 99 97 96 97 97 97 96 96 98 97 95 96 96 95 93 95 90
98 94 96 97 97 97 97 97 98 98 99 100 97 99 99 99 98 91 96 93 94 96 97 98 98 99 99 99 98 98 98 97 97 96 96 95 96 95 93 94 92 93 90 92
95 97 96 98 98 98 98 98 97 99 100 99 92 93 96 90 93 92 91 95 95 96 96 98 99 99 99 98 98 98 98 97 96 95 95 94 93 92 85 86 86 88 89 93

GFSNW_sfc_rhum_057.txt.gz
RH
84 85 85 85 84 82 90 93 98 54 72 99 89 76 48 45 29 22 17 22 27 16 23 26 23 23 20 19 18 22 19 23 31 27 16 15 20 24 24 37 37 34 37 33
85 85 85 86 85 84 96 98 89 69 69 95 88 53 43 28 33 26 21 28 27 26 29 32 24 22 22 21 22 22 21 24 34 27 23 20 22 22 22 25 27 44 72 33
86 89 86 86 86 87 94 99 99 97 95 57 58 48 41 33 36 34 23 28 25 28 33 31 31 25 27 26 24 45 31 23 28 33 24 20 25 21 19 23 42 34 28 22
80 85 91 86 86 89 95 99 88 81 96 89 58 42 33 30 36 34 31 32 28 30 35 33 38 30 32 32 44 29 27 29 24 19 16 15 16 19 18 20 21 30 24 20
79 81 88 89 88 91 98 100 57 63 55 69 58 50 39 28 28 26 34 41 36 26 29 30 37 36 35 36 32 31 25 33 26 25 18 16 18 14 13 14 15 16 16 18
80 78 77 77 83 93 98 95 43 49 57 70 62 53 40 31 29 26 20 28 35 34 28 35 37 39 41 39 42 34 31 34 33 41 22 21 38 22 16 15 15 16 22 18
83 81 78 78 78 92 95 90 41 70 61 74 51 42 35 30 25 31 23 22 33 32 29 35 34 42 36 45 39 34 41 37 38 53 65 71 26 16 16 19 16 14 14 14
85 83 82 78 81 81 97 64 50 58 85 48 44 40 37 30 30 37 25 24 21 37 38 50 45 47 58 44 45 37 36 46 56 68 50 30 20 22 22 21 19 14 16 15
87 84 84 81 81 82 96 70 47 57 62 48 34 40 36 38 38 38 36 25 26 37 53 53 47 35 26 31 42 35 37 42 62 59 57 64 30 19 16 17 34 16 15 16
85 84 84 80 80 86 93 86 63 56 58 37 40 59 44 34 35 40 38 32 45 46 67 82 58 38 17 32 44 79 72 67 79 68 61 38 20 17 16 40 37 17 15 16
84 83 81 82 82 89 91 83 59 57 59 44 39 39 54 37 34 48 39 43 53 64 78 66 50 59 35 36 30 50 69 67 85 67 73 74 27 23 30 27 24 19 20 19
86 82 81 82 85 86 90 86 61 58 73 71 59 69 68 56 32 30 42 45 44 39 47 53 50 77 80 42 54 24 53 46 56 43 43 30 30 29 23 21 21 23 23 20
85 84 82 83 88 90 81 85 76 72 77 77 62 61 77 77 60 56 60 48 32 38 33 36 48 65 41 86 57 38 36 34 46 42 33 29 27 27 27 23 23 21 22 22
84 84 88 90 88 84 73 79 72 64 65 97 66 39 50 74 70 61 56 51 36 32 34 48 68 73 27 55 39 39 35 35 39 36 26 26 26 31 33 26 25 25 24 24
86 89 85 86 82 77 76 69 71 55 57 82 60 46 42 50 73 68 60 64 59 39 52 79 71 39 35 36 44 46 23 28 46 47 26 42 36 29 30 28 27 30 28 28
90 89 88 88 81 82 80 97 76 66 72 54 71 55 45 39 63 64 63 64 62 44 46 64 40 28 37 77 61 28 19 20 24 32 31 33 32 37 32 29 27 28 31 28
93 91 86 80 76 66 89 77 54 59 43 54 69 56 53 51 65 65 66 63 60 62 61 67 51 44 42 76 72 26 22 24 23 28 36 47 39 33 37 38 31 40 32 32
87 82 81 87 88 86 72 63 65 52 52 53 77 94 90 65 94 93 67 73 67 66 60 60 65 53 68 73 37 32 27 26 32 38 36 44 46 44 43 43 44 44 40 39
87 83 78 83 86 72 82 82 74 65 62 70 100 100 100 89 87 94 89 78 85 56 80 70 59 65 77 44 35 32 32 39 35 38 38 41 48 43 45 48 50 47 56 49
82 69 54 76 79 94 85 93 86 70 70 88 100 90 100 98 100 100 100 97 85 88 89 61 77 67 43 81 62 52 54 53 49 58 57 55 54 49 50 51 50 49 54 52
54 66 85 74 90 95 94 88 96 94 99 79 77 81 100 97 100 100 95 99 97 100 98 78 81 74 78 90 86 64 58 55 53 51 52 52 51 53 59 58 59 58 61 63
83 71 72 88 91 81 93 96 86 80 72 75 82 83 76 86 92 98 98 100 100 100 98 100 98 98 83 95 95 86 76 65 60 56 57 61 57 56 58 62 66 69 78 91
68 55 69 66 91 100 91 92 86 94 95 96 95 96 85 81 80 100 100 100 100 99 99 95 95 81 84 97 98 96 91 87 81 79 77 80 83 81 85 90 88 89 90 90
98 100 100 100 100 96 96 96 100 100 100 100 96 100 100 100 100 100 100 100 100 100 96 97 88 91 98 100 100 97 98 98 96 96 96 96 96 97 97 97 97 96 97 98
96 90 96 94 95 95 94 98 100 97 99 100 100 100 100 100 100 100 100 100 96 88 91 90 92 100 99 97 99 99 98 98 97 97 97 97 97 96 97 98 97 96 96 96
86 83 91 86 90 92 94 96 96 98 97 100 100 100 100 98 94 95 98 87 88 91 90 91 92 95 95 96 97 99 99 98 96 95 94 95 95 95 96 95 95 97 96 96
95 94 93 95 91 92 94 95 94 96 100 98 95 94 98 88 86 86 83 90 91 93 90 89 93 94 96 96 97 99 99 96 96 95 95 96 96 93 89 92 93 91 92 96

GFSNW_sfc_rhum_060.txt.gz
RH
85 86 86 86 86 85 90 96 99 62 64 99 96 82 60 45 28 20 26 26 21 23 19 29 33 22 21 15 17 23 22 28 34 24 16 16 18 24 26 43 39 42 54 39
84 86 87 87 86 86 96 98 96 74 67 95 93 68 54 44 38 27 21 27 24 24 26 38 28 32 19 22 19 24 24 30 39 29 24 20 22 22 26 27 30 42 80 45
84 81 85 90 88 88 96 99 99 98 93 53 64 66 59 54 37 30 21 27 23 26 38 37 36 31 23 27 21 54 38 30 33 42 40 24 27 22 23 33 58 43 49 38
81 81 82 92 89 89 96 99 98 74 96 88 62 51 42 48 42 32 27 27 26 29 54 52 48 34 36 25 43 28 34 40 32 25 20 19 21 21 20 20 34 56 37 24
80 79 82 84 91 89 98 100 93 58 49 63 66 60 50 43 35 30 30 32 31 30 48 49 54 48 54 48 27 30 30 39 34 38 22 20 25 21 17 17 18 18 19 21
81 80 80 83 89 92 98 98 66 60 60 68 74 66 54 44 38 30 21 25 33 35 37 44 89 78 64 35 34 40 39 40 42 50 29 26 39 25 19 17 17 18 24 20
82 81 81 80 84 93 98 95 58 89 78 66 68 51 48 44 37 38 23 23 32 26 25 63 61 76 58 49 39 38 46 42 43 65 69 61 29 20 17 19 17 14 14 13
86 83 82 80 81 88 97 94 67 73 94 50 54 50 45 43 39 38 30 23 20 22 53 67 87 92 79 49 43 42 41 51 90 75 60 39 27 22 23 24 22 16 16 14
86 87 85 81 81 82 96 96 70 68 77 64 42 46 43 49 46 43 36 26 26 36 55 80 95 86 46 70 42 44 53 54 72 86 74 70 43 25 17 20 38 19 17 20
84 84 88 85 82 81 90 96 86 79 75 55 45 54 52 40 42 45 39 36 54 61 69 80 72 58 29 39 51 71 83 88 89 80 89 57 27 23 21 42 43 25 20 21
87 90 91 88 85 83 87 92 88 94 80 56 62 60 62 47 41 52 39 45 55 91 84 75 63 74 42 32 23 60 77 88 94 82 93 87 31 25 32 35 34 30 26 27
87 89 89 89 86 86 82 93 88 86 88 85 66 64 68 49 57 57 44 45 65 61 73 59 57 88 78 44 59 23 55 51 70 67 59 42 44 37 35 37 37 34 34 26
87 89 90 87 85 85 80 85 90 96 96 86 72 69 58 54 53 59 73 45 39 54 46 44 55 73 44 93 67 48 39 41 53 55 41 43 45 39 37 35 38 28 26 25
85 88 87 88 87 83 80 93 89 92 73 94 59 47 62 53 53 55 66 66 77 56 48 58 84 80 40 76 50 46 37 38 46 48 38 39 34 31 37 42 35 32 28 32
85 86 85 90 85 81 94 89 87 76 70 80 75 50 52 51 57 54 60 71 76 85 92 87 84 55 50 52 47 49 28 31 50 59 38 47 42 30 29 33 29 31 32 35
84 89 91 87 85 84 87 97 91 86 64 70 99 55 56 55 53 51 60 72 80 81 84 80 49 39 47 86 54 27 26 26 24 29 26 36 36 36 37 40 41 36 35 35
89 88 89 87 83 73 92 90 76 66 59 59 68 56 46 56 62 62 57 59 77 86 80 75 52 48 45 72 69 30 27 25 25 25 29 38 43 48 46 46 43 43 36 36
90 90 90 86 85 86 76 65 71 65 58 47 71 72 71 58 83 82 56 73 74 72 74 64 66 53 63 68 34 32 29 28 29 29 35 43 44 44 43 43 44 49 49 44
88 88 84 86 93 95 83 75 68 66 67 67 95 86 100 88 80 81 79 69 88 65 88 77 71 75 79 78 81 67 60 61 57 51 50 39 49 47 48 48 52 54 61 55
76 73 72 96 91 78 68 70 65 61 64 76 88 81 97 98 98 94 86 86 78 81 75 65 84 79 69 71 77 84 73 64 57 64 64 64 62 57 54 53 54 55 56 58
68 83 99 86 84 81 82 90 78 68 78 66 72 78 100 98 100 100 89 99 91 96 80 84 83 89 84 75 83 91 80 70 61 57 56 58 60 62 64 60 62 63 65 73
82 76 70 83 89 90 89 96 92 78 71 70 82 86 88 99 99 100 100 100 100 100 96 99 97 94 79 86 86 94 87 79 74 73 76 76 73 70 75 83 87 88 89 90
68 70 79 79 92 95 97 83 86 96 99 98 98 98 94 97 99 100 100 100 100 99 100 95 94 86 89 96 87 87 87 86 86 86 86 87 90 88 90 95 92 92 94 91
86 99 90 99 90 86 95 96 97 100 100 98 99 100 100 100 100 100 100 100 100 100 96 95 94 97 98 96 93 85 95 97 97 97 96 96 95 96 95 95 95 94 96 97
90 83 90 89 94 87 88 95 96 97 95 98 100 100 99 100 100 100 98 97 89 87 93 92 94 97 95 94 93 94 95 97 97 96 96 97 96 95 96 97 96 95 95 95
74 81 91 85 84 86 87 89 90 88 94 99 100 100 100 93 87 80 92 73 88 93 92 93 91 94 95 96 96 97 97 96 96 95 95 95 95 95 96 95 95 96 94 95
91 93 87 88 84 93 94 95 92 92 98 97 93 85 94 76 75 79 80 92 93 91 91 92 94 94 95 96 96 97 96 96 96 95 95 96 96 93 88 93 95 94 94 96

GFSNW_sfc_rhum_063.txt.gz
RH
85 85 86 87 88 88 91 97 100 68 66 99 91 87 70 55 38 38 44 36 33 35 38 36 34 49 46 26 22 27 26 38 42 34 23 19 23 27 33 65 57 61 71 58
85 85 86 87 87 89 96 98 98 86 71 97 95 71 68 58 56 47 42 40 33 31 36 44 41 47 38 37 29 28 27 31 51 45 30 26 25 27 29 35 50 61 78 64
85 87 87 86 87 89 96 99 99 98 96 70 69 72 74 70 53 54 45 41 39 41 40 34 46 54 48 58 34 44 33 38 36 47 44 36 37 29 27 36 68 61 64 51
84 80 82 87 88 90 97 99 98 85 96 96 79 64 60 68 68 47 44 51 49 42 44 42 54 56 64 57 50 41 34 34 33 36 28 30 31 32 28 30 38 57 52 49
81 82 89 90 90 94 98 100 98 82 65 72 86 75 68 64 54 47 53 53 41 41 44 37 62 75 69 80 70 75 41 50 37 40 33 31 32 29 33 29 27 43 45 47
82 80 80 83 83 86 98 96 86 71 73 78 93 84 72 64 56 49 42 43 44 47 40 43 76 79 84 85 86 86 72 58 58 54 38 37 53 39 31 30 28 30 46 36
80 80 81 80 82 85 95 96 74 90 93 76 82 66 66 62 56 56 41 38 40 33 65 68 73 74 69 69 77 89 85 57 68 80 64 66 41 27 27 30 25 22 20 21
82 82 81 81 80 82 96 98 78 81 98 66 63 73 61 58 54 55 51 40 34 29 32 73 91 92 90 74 79 87 82 77 90 78 66 50 37 30 33 34 33 23 22 21
88 88 85 82 81 81 92 96 94 86 84 82 48 61 60 65 64 60 54 41 41 45 58 72 77 97 86 96 69 82 88 78 89 96 88 73 54 36 31 29 44 28 32 28
87 87 88 89 82 81 90 96 92 97 98 67 58 62 65 53 54 61 55 52 56 66 72 82 93 86 69 88 94 93 98 95 99 98 99 86 49 32 34 52 52 32 32 34
86 87 86 86 88 82 91 95 91 97 97 70 59 64 72 58 56 66 60 62 63 90 86 76 86 89 69 68 54 76 83 93 99 99 98 96 50 42 42 45 42 36 35 37
86 86 85 86 87 85 88 98 90 92 99 92 73 72 68 72 63 79 59 53 53 89 86 92 86 88 85 64 60 45 86 74 83 72 83 62 60 54 49 49 46 48 45 38
87 86 86 86 86 87 89 94 88 95 99 98 95 90 81 73 77 80 88 68 58 79 81 94 90 79 70 87 76 48 50 51 68 70 59 53 49 57 59 58 57 47 36 44
86 86 86 85 84 90 86 92 87 93 98 98 91 76 77 69 71 79 79 82 79 84 87 94 96 97 60 78 65 62 55 53 62 71 53 52 48 43 56 53 54 47 41 38
90 90 90 91 93 89 87 92 86 92 97 97 92 78 75 66 73 74 80 81 88 96 96 99 93 85 76 78 71 71 45 45 77 87 64 57 47 38 47 56 49 44 50 46
88 88 90 89 89 85 93 99 93 94 96 91 99 78 72 68 67 70 77 84 89 97 95 98 91 70 75 94 78 42 34 34 35 38 34 34 38 42 47 51 52 50 54 52
87 87 88 88 87 90 93 96 91 87 90 85 97 90 72 70 73 78 76 85 94 96 95 96 94 86 87 94 82 52 46 39 31 43 48 45 42 54 55 53 55 57 54 54
88 84 86 92 92 89 88 85 80 81 70 69 94 96 86 78 94 94 79 90 93 94 96 93 96 85 87 95 86 81 79 73 68 66 63 65 56 56 54 55 57 61 64 65
90 87 87 95 97 97 93 82 79 82 81 92 98 96 96 95 92 90 92 91 98 91 98 92 92 98 97 93 89 86 90 83 80 69 68 64 70 68 62 58 62 67 72 71
85 88 93 99 98 81 80 84 83 82 85 91 97 91 99 96 100 99 99 97 96 98 92 86 95 99 95 93 85 85 88 80 74 81 86 80 81 76 75 74 75 78 85 82
89 95 99 95 84 93 92 96 90 83 91 93 91 94 98 97 99 100 99 99 97 93 90 87 99 94 90 97 96 82 82 78 76 75 80 81 84 88 89 90 90 88 88 90
90 85 88 96 91 94 90 98 98 92 93 92 95 98 95 100 98 99 99 99 98 95 93 98 98 96 92 89 87 89 88 83 83 81 86 88 88 89 90 91 92 91 90 90
87 84 90 87 96 91 95 96 95 99 99 99 100 99 98 99 99 100 100 100 99 96 95 97 97 93 92 94 89 89 89 87 86 87 86 86 89 88 90 92 90 90 92 90
93 95 92 95 95 97 97 97 98 99 99 98 99 100 100 100 99 100 99 100 97 98 96 96 96 97 97 96 96 92 96 96 96 96 96 96 95 96 96 96 96 95 96 96
93 87 98 97 98 96 95 95 98 98 94 98 99 100 99 100 99 99 99 97 96 95 97 97 97 97 97 96 96 97 96 96 96 96 96 96 95 93 95 96 96 95 95 95
87 90 95 94 94 95 96 96 97 95 96 98 100 98 98 98 95 95 96 92 95 97 97 96 96 96 96 97 96 97 96 96 96 96 95 95 94 94 96 94 94 95 93 94
91 98 95 97 96 98 98 97 98 97 99 99 96 93 97 87 89 90 93 97 96 96 95 95 96 96 96 96 95 96 96 96 96 95 94 95 95 89 84 93 96 94 94 94

GFSNW_sfc_rhum_066.txt.gz
RH
83 84 87 88 89 89 96 98 100 83 75 98 89 90 68 60 52 45 47 50 48 49 43 44 46 44 39 37 42 39 31 40 46 36 31 24 24 32 38 57 61 71 77 55
84 88 87 90 91 89 97 99 98 88 73 95 91 70 66 63 59 54 52 50 42 41 51 53 50 46 41 54 56 52 42 45 58 44 36 28 34 31 30 43 56 56 77 62
85 88 90 90 90 90 98 100 100 100 96 75 73 69 69 64 54 61 57 57 50 49 49 47 52 48 45 60 57 75 63 52 41 48 41 37 41 34 28 33 72 56 67 46
84 85 86 88 89 89 98 100 98 91 97 97 83 68 63 69 68 55 57 59 60 66 65 51 50 54 72 60 71 69 69 61 42 33 29 30 35 37 30 35 41 59 51 55
86 86 87 88 90 90 99 100 98 91 83 73 88 80 75 67 62 61 62 63 49 50 64 55 60 51 70 76 70 76 76 84 52 49 36 28 30 30 36 36 36 40 42 44
85 88 87 89 86 90 98 98 90 71 75 83 97 84 74 64 62 58 53 53 57 60 54 49 52 69 82 84 84 88 86 92 92 75 45 36 56 43 38 37 37 42 57 47
86 84 84 83 84 87 94 98 86 98 96 77 83 72 68 68 64 68 50 48 60 48 42 64 84 82 75 82 85 79 84 88 97 97 69 72 43 32 33 36 30 27 31 35
82 82 82 83 83 82 97 98 96 97 91 81 66 68 68 68 62 64 62 55 48 45 48 67 73 83 77 82 80 94 76 90 99 100 73 56 47 36 35 34 38 30 27 24
82 82 82 82 82 82 93 97 95 98 92 89 59 62 66 76 78 74 64 49 47 55 66 75 70 83 86 86 86 82 88 88 90 100 97 74 54 37 35 37 57 33 29 30
83 83 83 82 82 82 90 97 91 98 100 79 68 68 70 60 70 79 69 63 60 62 85 93 90 66 61 81 94 98 98 100 97 99 98 88 64 53 41 54 51 44 37 36
86 85 86 85 85 83 90 91 90 94 100 94 72 60 71 64 62 74 70 71 74 88 87 87 84 92 79 80 72 86 93 95 99 100 99 93 57 51 57 58 53 50 52 48
89 90 88 87 89 85 85 95 91 84 96 98 82 69 61 49 51 64 70 68 63 70 86 92 90 90 92 78 77 55 84 74 90 85 77 60 60 61 69 66 65 62 60 54
87 88 88 88 89 90 90 97 93 93 97 95 94 76 73 73 76 72 85 81 67 83 83 94 92 80 81 81 76 57 56 58 70 72 54 55 54 52 49 58 54 50 57 54
90 87 90 89 88 86 90 96 85 85 96 99 93 74 74 77 77 75 78 82 83 88 94 94 98 96 76 84 64 59 45 51 50 71 60 56 55 55 49 46 47 53 48 54
89 87 88 90 89 87 92 93 82 87 90 98 99 86 86 84 81 76 81 81 88 93 93 99 95 94 86 88 85 73 58 62 81 79 61 62 58 39 42 52 44 42 53 60
84 89 89 87 90 92 95 99 94 82 94 99 100 91 87 87 86 87 88 82 91 96 94 97 92 88 86 97 87 86 84 81 65 69 62 65 48 43 46 52 58 55 57 60
88 88 87 92 89 92 94 96 90 81 91 100 100 98 84 72 76 82 86 87 91 92 92 96 95 90 77 99 92 88 82 84 80 78 76 69 60 50 63 59 60 62 58 60
90 91 88 85 82 89 96 90 86 90 97 86 95 99 95 89 96 95 89 95 96 94 92 94 88 93 92 99 90 81 81 81 81 80 76 76 73 68 63 62 63 66 70 74
87 88 86 93 95 99 98 88 91 93 84 94 97 95 100 92 96 94 93 94 98 92 99 93 87 100 98 94 94 88 91 92 87 81 80 80 82 80 78 75 77 81 88 79
91 96 95 99 100 91 87 83 90 87 90 92 96 94 98 96 98 100 98 99 96 99 96 93 97 98 99 91 95 89 84 86 80 92 94 92 89 90 90 88 84 84 82 82
92 96 99 95 87 91 91 96 89 87 90 93 90 93 98 95 96 99 99 99 99 98 92 94 97 93 91 96 95 91 82 85 89 84 84 86 88 92 92 91 89 88 87 88
89 88 93 95 92 90 91 98 97 90 96 98 96 98 97 97 94 99 99 100 99 93 96 93 98 96 92 89 88 84 83 83 85 89 93 93 90 90 90 90 91 90 89 89
90 88 88 83 90 89 94 98 97 99 99 98 99 100 99 99 99 99 99 99 99 96 96 94 96 95 93 94 88 88 88 88 85 86 86 85 87 89 92 93 92 90 91 91
88 89 91 94 94 98 97 98 98 99 99 98 99 99 100 100 99 100 99 99 88 96 96 96 96 97 97 95 94 90 94 94 94 95 95 95 95 95 96 96 96 95 95 96
92 87 99 96 98 97 97 97 96 97 97 98 99 100 99 99 98 98 94 96 97 96 98 98 96 97 96 96 95 95 95 95 95 96 96 96 96 95 95 96 96 95 95 95
89 91 94 96 95 95 97 100 99 98 97 99 98 97 97 97 96 91 97 88 96 97 97 96 95 95 95 96 96 96 96 96 95 95 96 95 95 95 96 95 95 95 94 94
92 98 99 100 100 98 98 99 97 96 99 99 93 94 97 86 93 94 93 97 96 96 96 96 96 96 96 96 96 96 95 95 95 96 96 96 96 92 86 92 95 94 94 94

GFSNW_sfc_rhum_069.txt.gz
RH
81 82 83 84 87 90 93 99 100 88 84 100 97 83 69 59 54 55 55 57 57 56 52 49 50 50 39 49 57 53 39 48 48 38 31 31 30 37 42 63 58 76 78 54
81 81 82 82 87 88 99 99 98 92 78 97 95 69 64 63 63 56 59 59 60 48 51 48 53 51 45 60 50 55 57 62 58 49 41 33 36 36 36 49 59 58 72 59
81 82 84 84 88 89 98 100 100 99 98 86 72 72 67 73 57 62 63 65 60 66 61 55 58 54 43 52 67 80 72 67 74 66 49 39 45 33 33 38 62 55 52 45
81 83 84 85 90 91 99 100 98 91 98 96 73 66 64 67 71 55 63 66 63 67 80 65 59 48 40 52 75 71 81 90 76 70 57 41 35 34 33 34 39 50 39 50
82 84 85 85 89 92 99 99 99 91 88 86 81 78 74 67 62 59 66 73 66 60 66 63 63 52 59 66 69 74 81 90 94 86 54 42 40 32 36 38 37 38 40 49
84 84 84 87 88 94 98 96 90 83 93 97 96 82 70 71 63 62 51 61 66 70 60 55 55 52 51 56 82 83 86 91 97 95 76 69 72 48 34 30 39 40 49 44
86 87 87 88 89 92 96 97 88 99 98 83 84 75 70 68 66 67 58 57 68 57 50 58 71 72 77 87 86 78 94 92 95 98 87 97 63 40 33 36 31 36 39 38
88 88 88 89 89 91 97 98 96 92 97 83 70 71 75 68 62 68 60 53 48 51 57 71 75 86 85 74 84 88 82 92 99 98 88 73 50 46 45 44 39 34 36 32
85 89 90 90 89 92 97 96 94 95 96 94 66 68 71 89 77 74 68 55 55 59 71 79 79 85 73 86 82 80 86 84 89 99 97 89 44 48 35 40 56 37 28 34
83 87 88 85 85 88 94 97 94 98 100 81 68 74 76 67 76 83 75 67 72 68 89 94 94 82 63 81 94 91 98 99 98 98 96 87 65 49 52 82 67 50 45 45
84 83 83 83 82 81 91 96 92 97 100 91 78 63 69 64 68 82 73 72 77 93 87 93 87 96 80 73 76 93 93 96 97 98 100 89 65 70 91 71 68 69 60 61
87 85 84 83 82 82 82 98 93 91 98 95 95 86 77 49 50 61 70 63 73 79 88 93 89 93 96 81 90 68 85 80 87 86 79 61 56 73 71 77 73 68 65 62
90 90 87 85 84 84 85 96 97 97 99 96 92 89 74 75 56 59 84 84 66 80 78 91 88 82 85 92 84 66 63 66 76 84 59 59 48 52 59 61 60 57 58 59
90 90 89 87 85 86 85 97 94 91 96 99 88 63 71 62 75 58 69 78 88 92 95 92 97 96 77 86 69 74 62 60 60 57 49 55 55 54 51 51 52 53 54 50
87 88 88 88 88 86 91 97 90 74 86 93 88 89 75 85 89 85 83 84 89 95 97 99 98 94 93 91 88 88 92 92 97 84 81 91 51 51 50 55 53 51 56 56
89 87 89 88 90 92 96 100 95 82 93 97 100 89 93 95 89 87 84 87 92 95 95 98 94 90 91 96 85 89 88 84 86 95 85 87 79 57 56 52 54 58 61 62
90 89 89 92 92 92 95 94 93 88 92 97 100 100 93 82 87 90 90 90 94 94 97 99 96 93 86 100 99 89 80 85 82 79 88 89 85 88 75 69 67 68 70 75
88 89 92 93 84 87 94 94 80 81 95 96 99 100 98 89 96 96 90 96 97 95 94 94 94 93 96 99 85 81 84 80 84 83 82 89 89 82 84 82 81 82 80 78
90 87 86 89 96 98 99 80 77 97 95 98 99 98 99 93 97 96 95 96 99 93 100 95 91 97 98 89 85 87 85 90 91 82 82 82 90 90 89 86 86 86 88 81
83 89 94 100 99 89 85 95 99 100 96 91 98 96 99 96 98 100 98 99 98 96 97 94 95 98 94 96 84 82 85 82 84 95 93 91 94 92 92 93 90 86 86 86
96 98 100 99 94 96 96 98 96 93 93 93 97 93 99 96 96 92 98 98 97 99 94 95 96 94 91 95 90 79 82 88 84 83 84 86 89 91 90 90 89 87 85 87
87 89 92 95 91 87 91 97 96 91 98 98 100 96 96 99 92 98 99 99 99 98 96 96 96 95 92 91 85 84 82 84 84 82 85 86 84 88 90 91 90 89 91 92
85 80 78 80 89 88 93 98 97 98 99 97 98 99 97 98 95 97 99 97 99 98 96 97 97 94 88 91 84 85 86 83 81 84 86 86 87 86 84 88 91 93 93 94
87 87 92 92 95 98 98 98 98 99 99 98 98 99 99 100 99 99 99 98 91 96 96 98 95 97 96 94 93 87 94 93 92 94 93 94 93 95 95 95 95 94 95 96
92 86 99 96 97 97 98 98 98 97 97 98 99 100 99 98 97 97 92 93 97 95 99 98 96 96 95 95 94 96 95 95 95 95 95 95 94 92 95 95 95 94 94 94
88 90 94 96 95 95 96 98 98 95 97 99 98 98 97 97 96 90 96 87 96 98 98 96 95 96 96 96 96 96 96 95 96 96 95 94 93 93 95 93 94 94 94 94
92 98 99 100 100 98 98 98 96 92 98 98 96 95 97 85 94 94 93 97 97 96 96 95 95 95 96 95 95 95 94 95 95 95 95 95 95 88 84 92 95 93 94 95

GFSNW_sfc_rhum_075.txt.gz
RH
73 72 69 70 73 78 87 96 100 96 88 100 100 94 73 58 46 48 55 57 60 57 52 45 42 52 48 36 45 61 58 50 49 35 32 30 33 38 40 53 50 63 57 40
70 74 71 71 76 76 97 98 99 98 87 97 97 97 79 58 54 58 57 58 61 56 54 50 48 48 44 44 37 36 53 65 58 47 39 41 44 37 36 47 50 50 65 42
70 74 72 73 75 74 95 100 100 99 99 88 79 94 78 71 57 55 60 63 60 61 60 51 54 51 43 48 40 60 63 68 88 68 73 67 73 60 55 48 58 47 47 39
73 73 72 75 76 79 95 100 99 96 99 98 87 72 68 70 68 58 58 62 62 63 66 64 56 46 45 43 51 61 56 63 60 66 47 50 57 61 56 58 52 53 42 35
77 77 76 76 78 79 98 100 100 98 99 80 98 91 92 72 65 65 63 70 65 64 64 55 49 52 50 49 50 53 56 76 77 78 54 45 60 56 42 51 49 43 39 39
79 77 77 78 78 82 98 96 95 99 98 84 99 94 77 73 61 58 50 54 58 63 65 59 58 55 56 54 58 60 62 85 88 77 69 68 66 48 48 40 41 43 49 39
84 82 80 79 79 82 93 98 93 98 97 96 94 82 70 66 63 63 54 54 64 59 55 60 60 68 66 65 63 60 64 68 94 90 87 83 40 41 45 47 43 37 38 34
86 86 86 82 81 81 95 94 95 96 96 94 90 74 78 63 62 62 57 57 50 55 57 96 82 72 80 74 68 67 63 69 99 94 85 58 38 30 37 48 39 60 52 56
86 85 90 86 84 83 93 96 93 96 100 93 71 77 71 78 84 82 65 62 60 72 99 94 85 82 66 67 70 70 74 75 98 98 90 83 45 40 51 40 58 60 62 65
85 84 88 90 87 82 91 97 92 97 99 82 74 81 88 66 74 87 77 81 95 80 99 92 84 74 58 62 78 80 87 99 96 89 92 71 56 48 56 61 53 54 55 54
87 84 84 89 86 89 94 96 92 96 100 95 71 70 85 78 80 88 81 93 94 99 96 90 85 87 69 61 60 78 76 78 84 85 89 83 50 58 58 50 59 57 44 47
89 86 82 87 91 87 89 98 94 91 97 98 92 80 73 57 61 71 81 72 79 79 84 84 77 85 86 68 68 73 78 75 76 72 66 55 56 53 45 55 57 53 51 45
89 86 83 84 88 91 92 97 96 98 100 99 98 94 73 72 68 61 86 75 66 77 71 88 81 79 71 86 74 65 65 63 72 72 52 53 47 47 66 71 75 69 63 57
92 88 86 83 84 85 91 97 96 95 98 100 97 75 75 69 70 71 69 68 82 82 87 89 93 83 69 75 62 61 52 60 63 65 52 65 47 71 77 77 72 71 67 62
92 89 90 86 86 90 93 96 94 91 92 97 90 82 68 67 74 74 77 74 77 88 89 99 90 83 85 85 82 76 68 65 75 61 85 88 80 74 78 78 80 72 68 67
92 92 89 87 90 88 95 100 97 92 93 98 98 83 82 68 72 70 77 81 76 90 89 93 90 85 82 91 83 81 79 76 78 83 80 81 82 76 75 78 75 70 69 68
94 92 89 86 92 93 98 94 94 85 89 95 94 90 85 76 80 93 87 87 93 89 97 96 86 88 87 94 95 93 84 78 78 76 82 86 80 89 75 74 71 71 67 68
94 91 88 86 82 86 96 96 85 81 93 90 98 97 95 83 99 100 96 99 98 98 98 97 95 94 91 93 88 79 76 72 74 76 78 93 83 80 76 74 72 73 79 79
93 92 88 93 96 98 99 87 86 93 92 98 96 97 98 90 99 98 99 98 100 98 100 98 92 95 97 94 86 80 82 85 82 75 74 83 89 87 84 82 84 82 81 79
88 89 95 100 99 91 90 94 98 98 97 99 97 97 100 100 99 100 100 96 98 97 97 92 96 94 92 88 79 75 75 77 74 84 83 85 90 94 93 92 94 90 82 80
96 99 99 97 85 93 95 100 98 99 99 97 98 97 99 98 97 99 97 98 95 97 96 94 91 88 87 83 80 73 72 74 75 77 82 88 90 91 91 91 90 87 82 82
96 92 89 91 92 92 91 98 98 94 96 96 99 99 98 100 92 96 96 96 96 90 94 94 92 90 80 73 76 76 74 76 78 81 83 86 89 90 89 91 89 88 87 90
79 73 69 70 83 88 92 98 95 95 97 97 98 99 96 93 91 97 94 96 96 82 92 91 90 88 79 80 76 77 78 79 79 83 84 82 84 81 83 87 89 91 91 92
81 83 91 92 96 96 96 94 96 96 96 96 98 99 97 95 94 97 86 96 88 94 93 92 89 93 92 89 89 82 91 91 91 92 92 92 89 93 93 94 95 93 94 95
91 85 99 96 96 96 96 96 96 93 94 96 98 94 87 93 93 94 89 89 91 88 92 90 90 92 92 92 92 94 94 95 93 93 94 95 94 94 95 95 94 93 94 93
86 89 94 94 95 96 96 96 96 93 94 96 92 93 91 96 90 84 94 81 89 90 91 89 88 91 93 94 93 94 94 94 94 95 94 94 94 94 95 94 94 94 93 94
89 98 96 97 96 97 98 97 93 90 95 96 93 90 95 87 90 90 88 93 92 91 92 93 94 95 95 95 95 95 95 94 95 94 94 94 94 92 87 91 94 92 93 94